Time,TemperatureF,DewpointF,PressureIn,WindDirection,WindDirectionDegrees,WindSpeedMPH,WindSpeedGustMPH,Humidity,HourlyPrecipIn,Conditions,Clouds,dailyrainin,SoftwareType,DateUTC
2013-07-08 00:02:00,77.9,70.9,29.87,South,182,7.0,7.0,79,0.00,,,0.00,Wunderground v.1.15,2013-07-08 05:02:00,
2013-07-08 00:08:00,78.0,71.0,29.86,SSE,166,7.0,7.0,79,0.00,,,0.00,Wunderground v.1.15,2013-07-08 05:08:00,
2013-07-08 00:13:00,78.0,71.0,29.86,SSW,213,7.0,7.0,79,0.00,,,0.00,Wunderground v.1.15,2013-07-08 05:13:00,
2013-07-08 00:25:00,78.3,70.5,29.86,South,184,7.0,11.0,77,0.00,,,0.00,Wunderground v.1.15,2013-07-08 05:25:00,
2013-07-08 00:32:00,78.5,70.7,29.86,SSW,194,9.0,9.0,77,0.00,,,0.00,Wunderground v.1.15,2013-07-08 05:32:00,
2013-07-08 00:37:00,78.6,70.4,29.86,South,175,9.0,11.0,76,0.00,,,0.00,Wunderground v.1.15,2013-07-08 05:37:00,
2013-07-08 00:42:00,78.6,70.4,29.86,South,188,9.0,9.0,76,0.00,,,0.00,Wunderground v.1.15,2013-07-08 05:42:00,
2013-07-08 00:48:00,78.8,70.2,29.87,SSW,196,8.0,12.0,75,0.00,,,0.00,Wunderground v.1.15,2013-07-08 05:48:00,
2013-07-08 00:53:00,78.9,70.3,29.86,South,172,14.0,14.0,75,0.00,,,0.00,Wunderground v.1.15,2013-07-08 05:53:00,
2013-07-08 00:58:00,78.7,70.5,29.86,SSW,202,6.0,14.0,76,0.00,,,0.00,Wunderground v.1.15,2013-07-08 05:58:00,
2013-07-08 01:03:00,78.3,70.5,29.86,SSW,204,11.0,11.0,77,0.00,,,0.00,Wunderground v.1.15,2013-07-08 06:03:00,
2013-07-08 01:09:00,77.6,70.9,29.85,South,188,8.0,10.0,80,0.00,,,0.00,Wunderground v.1.15,2013-07-08 06:09:00,
2013-07-08 01:14:00,77.0,70.7,29.85,SSW,194,13.0,13.0,81,0.00,,,0.00,Wunderground v.1.15,2013-07-08 06:14:00,
2013-07-08 01:20:00,76.9,70.6,29.85,SSW,198,13.0,15.0,81,0.00,,,0.00,Wunderground v.1.15,2013-07-08 06:20:00,
2013-07-08 01:25:00,76.8,70.9,29.84,South,170,9.0,12.0,82,0.34,,,0.03,Wunderground v.1.15,2013-07-08 06:25:00,
2013-07-08 01:30:00,76.2,71.0,29.84,South,186,5.0,12.0,84,0.09,,,0.03,Wunderground v.1.15,2013-07-08 06:30:00,
2013-07-08 01:35:00,75.9,70.7,29.85,South,185,5.0,10.0,84,0.05,,,0.03,Wunderground v.1.15,2013-07-08 06:35:00,
2013-07-08 01:42:00,75.7,70.9,29.85,SSW,195,8.0,8.0,85,0.00,,,0.03,Wunderground v.1.15,2013-07-08 06:42:00,
2013-07-08 01:48:00,75.6,70.8,29.85,South,186,7.0,10.0,85,0.00,,,0.03,Wunderground v.1.15,2013-07-08 06:48:00,
2013-07-08 01:54:00,75.6,70.8,29.84,SSW,203,6.0,8.0,85,0.00,,,0.03,Wunderground v.1.15,2013-07-08 06:54:00,
2013-07-08 02:00:00,75.6,70.8,29.84,South,191,7.0,7.0,85,0.00,,,0.03,Wunderground v.1.15,2013-07-08 07:00:00,
2013-07-08 02:05:00,75.6,70.8,29.84,South,188,6.0,11.0,85,0.00,,,0.03,Wunderground v.1.15,2013-07-08 07:05:00,
2013-07-08 02:10:00,75.5,70.7,29.84,SSW,202,9.0,9.0,85,0.00,,,0.03,Wunderground v.1.15,2013-07-08 07:10:00,
2013-07-08 02:15:00,75.6,70.8,29.84,SW,224,9.0,9.0,85,0.00,,,0.03,Wunderground v.1.15,2013-07-08 07:15:00,
2013-07-08 02:20:00,75.7,70.5,29.83,SW,224,5.0,9.0,84,0.00,,,0.03,Wunderground v.1.15,2013-07-08 07:20:00,
2013-07-08 02:25:00,75.8,70.6,29.83,SW,217,6.0,9.0,84,0.00,,,0.03,Wunderground v.1.15,2013-07-08 07:25:00,
2013-07-08 02:30:00,75.8,70.6,29.83,SSW,204,6.0,9.0,84,0.00,,,0.03,Wunderground v.1.15,2013-07-08 07:30:00,
2013-07-08 02:35:00,75.8,70.6,29.83,SSW,198,7.0,9.0,84,0.00,,,0.03,Wunderground v.1.15,2013-07-08 07:35:00,
2013-07-08 02:40:00,75.7,70.5,29.83,SW,216,4.0,9.0,84,0.00,,,0.03,Wunderground v.1.15,2013-07-08 07:40:00,
2013-07-08 02:45:00,75.6,70.4,29.83,SSW,208,4.0,6.0,84,0.00,,,0.03,Wunderground v.1.15,2013-07-08 07:45:00,
2013-07-08 02:50:00,75.5,70.3,29.83,SW,217,6.0,7.0,84,0.00,,,0.03,Wunderground v.1.15,2013-07-08 07:50:00,
2013-07-08 02:55:00,75.5,70.3,29.83,South,190,6.0,7.0,84,0.00,,,0.03,Wunderground v.1.15,2013-07-08 07:55:00,
2013-07-08 03:00:00,75.4,70.2,29.83,SSW,203,4.0,6.0,84,0.00,,,0.03,Wunderground v.1.15,2013-07-08 08:00:00,
2013-07-08 03:05:00,75.3,70.1,29.83,SSW,194,4.0,7.0,84,0.00,,,0.03,Wunderground v.1.15,2013-07-08 08:05:00,
2013-07-08 03:10:00,75.2,70.0,29.83,SSW,192,5.0,6.0,84,0.00,,,0.03,Wunderground v.1.15,2013-07-08 08:10:00,
2013-07-08 03:15:00,75.0,69.8,29.83,South,185,4.0,6.0,84,0.00,,,0.03,Wunderground v.1.15,2013-07-08 08:15:00,
2013-07-08 03:20:00,74.8,69.6,29.83,South,175,7.0,7.0,84,0.00,,,0.03,Wunderground v.1.15,2013-07-08 08:20:00,
2013-07-08 03:25:00,74.7,69.9,29.83,SSE,167,6.0,7.0,85,0.00,,,0.03,Wunderground v.1.15,2013-07-08 08:25:00,
2013-07-08 03:30:00,74.6,69.8,29.83,South,180,6.0,8.0,85,0.00,,,0.03,Wunderground v.1.15,2013-07-08 08:30:00,
2013-07-08 03:35:00,74.7,69.5,29.83,South,173,5.0,7.0,84,0.00,,,0.03,Wunderground v.1.15,2013-07-08 08:35:00,
2013-07-08 03:42:00,74.8,69.6,29.84,South,180,4.0,5.0,84,0.00,,,0.03,Wunderground v.1.15,2013-07-08 08:42:00,
2013-07-08 03:47:00,74.8,69.6,29.84,South,177,5.0,6.0,84,0.00,,,0.03,Wunderground v.1.15,2013-07-08 08:47:00,
2013-07-08 03:52:00,74.7,69.5,29.84,South,169,5.0,6.0,84,0.00,,,0.03,Wunderground v.1.15,2013-07-08 08:52:00,
2013-07-08 03:57:00,74.6,69.4,29.84,South,178,5.0,6.0,84,0.00,,,0.03,Wunderground v.1.15,2013-07-08 08:57:00,
2013-07-08 04:03:00,74.6,69.4,29.84,South,187,4.0,4.0,84,0.00,,,0.03,Wunderground v.1.15,2013-07-08 09:03:00,
2013-07-08 04:08:00,74.5,69.3,29.84,South,186,3.0,6.0,84,0.00,,,0.03,Wunderground v.1.15,2013-07-08 09:08:00,
2013-07-08 04:13:00,74.4,69.2,29.84,South,190,4.0,5.0,84,0.00,,,0.03,Wunderground v.1.15,2013-07-08 09:13:00,
2013-07-08 04:18:00,74.3,69.1,29.84,SSW,194,3.0,6.0,84,0.00,,,0.03,Wunderground v.1.15,2013-07-08 09:18:00,
2013-07-08 04:23:00,74.4,68.9,29.84,South,186,4.0,5.0,83,0.00,,,0.03,Wunderground v.1.15,2013-07-08 09:23:00,
2013-07-08 04:28:00,74.5,69.0,29.84,SSW,198,6.0,8.0,83,0.00,,,0.03,Wunderground v.1.15,2013-07-08 09:28:00,
2013-07-08 04:33:00,74.7,68.8,29.84,SSW,208,5.0,7.0,82,0.00,,,0.03,Wunderground v.1.15,2013-07-08 09:33:00,
2013-07-08 04:38:00,74.8,68.9,29.84,SSW,203,8.0,9.0,82,0.00,,,0.03,Wunderground v.1.15,2013-07-08 09:38:00,
2013-07-08 04:43:00,74.9,68.7,29.84,SSW,200,7.0,7.0,81,0.00,,,0.03,Wunderground v.1.15,2013-07-08 09:43:00,
2013-07-08 04:48:00,75.1,68.5,29.84,SSW,200,6.0,10.0,80,0.00,,,0.03,Wunderground v.1.15,2013-07-08 09:48:00,
2013-07-08 04:53:00,75.2,68.6,29.85,SSW,207,5.0,7.0,80,0.00,,,0.03,Wunderground v.1.15,2013-07-08 09:53:00,
2013-07-08 04:58:00,75.4,68.8,29.85,SSW,206,7.0,8.0,80,0.00,,,0.03,Wunderground v.1.15,2013-07-08 09:58:00,
2013-07-08 05:03:00,75.5,68.5,29.85,SW,214,6.0,6.0,79,0.00,,,0.03,Wunderground v.1.15,2013-07-08 10:03:00,
2013-07-08 05:08:00,75.5,68.5,29.85,SW,224,6.0,9.0,79,0.00,,,0.03,Wunderground v.1.15,2013-07-08 10:08:00,
2013-07-08 05:13:00,75.5,68.5,29.84,SW,227,5.0,8.0,79,0.00,,,0.03,Wunderground v.1.15,2013-07-08 10:13:00,
2013-07-08 05:18:00,75.4,68.4,29.85,SW,233,9.0,10.0,79,0.00,,,0.03,Wunderground v.1.15,2013-07-08 10:18:00,
2013-07-08 05:23:00,75.4,68.4,29.84,SW,221,6.0,8.0,79,0.00,,,0.03,Wunderground v.1.15,2013-07-08 10:23:00,
2013-07-08 05:28:00,75.3,68.7,29.84,SW,234,6.0,10.0,80,0.00,,,0.03,Wunderground v.1.15,2013-07-08 10:28:00,
2013-07-08 05:33:00,75.3,68.3,29.84,SSW,210,7.0,7.0,79,0.00,,,0.03,Wunderground v.1.15,2013-07-08 10:33:00,
2013-07-08 05:38:00,75.2,68.6,29.84,SW,220,7.0,8.0,80,0.00,,,0.03,Wunderground v.1.15,2013-07-08 10:38:00,
2013-07-08 05:43:00,75.2,68.6,29.84,SW,220,8.0,8.0,80,0.00,,,0.03,Wunderground v.1.15,2013-07-08 10:43:00,
2013-07-08 05:48:00,75.1,68.5,29.84,SSW,195,5.0,11.0,80,0.00,,,0.03,Wunderground v.1.15,2013-07-08 10:48:00,
2013-07-08 05:53:00,75.1,68.5,29.84,SSW,211,7.0,7.0,80,0.00,,,0.03,Wunderground v.1.15,2013-07-08 10:53:00,
2013-07-08 05:58:00,75.0,68.4,29.84,SSW,210,7.0,7.0,80,0.00,,,0.03,Wunderground v.1.15,2013-07-08 10:58:00,
2013-07-08 06:03:00,74.9,68.7,29.84,SSW,213,7.0,7.0,81,0.00,,,0.03,Wunderground v.1.15,2013-07-08 11:03:00,
2013-07-08 06:08:00,74.8,68.6,29.85,SW,221,4.0,9.0,81,0.00,,,0.03,Wunderground v.1.15,2013-07-08 11:08:00,
2013-07-08 06:14:00,74.8,68.6,29.84,SW,223,8.0,8.0,81,0.00,,,0.03,Wunderground v.1.15,2013-07-08 11:14:00,
2013-07-08 06:19:00,74.7,68.5,29.85,SW,232,5.0,8.0,81,0.00,,,0.03,Wunderground v.1.15,2013-07-08 11:19:00,
2013-07-08 06:24:00,74.7,68.5,29.85,SW,215,4.0,6.0,81,0.00,,,0.03,Wunderground v.1.15,2013-07-08 11:24:00,
2013-07-08 06:29:00,74.6,68.4,29.85,SW,225,4.0,6.0,81,0.00,,,0.03,Wunderground v.1.15,2013-07-08 11:29:00,
2013-07-08 06:34:00,74.4,68.5,29.85,SW,222,3.0,4.0,82,0.00,,,0.03,Wunderground v.1.15,2013-07-08 11:34:00,
2013-07-08 06:39:00,74.2,68.3,29.85,SSW,208,3.0,5.0,82,0.00,,,0.03,Wunderground v.1.15,2013-07-08 11:39:00,
2013-07-08 06:44:00,74.0,68.5,29.85,SSW,208,4.0,6.0,83,0.00,,,0.03,Wunderground v.1.15,2013-07-08 11:44:00,
2013-07-08 06:49:00,73.9,68.4,29.85,SSW,211,3.0,6.0,83,0.00,,,0.03,Wunderground v.1.15,2013-07-08 11:49:00,
2013-07-08 06:54:00,73.9,68.8,29.85,SW,215,5.0,6.0,84,0.00,,,0.03,Wunderground v.1.15,2013-07-08 11:54:00,
2013-07-08 06:59:00,73.9,68.8,29.85,SW,215,4.0,6.0,84,0.00,,,0.03,Wunderground v.1.15,2013-07-08 11:59:00,
2013-07-08 07:04:00,74.0,68.9,29.85,SW,224,4.0,6.0,84,0.00,,,0.03,Wunderground v.1.15,2013-07-08 12:04:00,
2013-07-08 07:09:00,74.2,69.1,29.85,SW,220,4.0,4.0,84,0.00,,,0.03,Wunderground v.1.15,2013-07-08 12:09:00,
2013-07-08 07:14:00,74.3,69.1,29.85,SSW,209,5.0,6.0,84,0.00,,,0.03,Wunderground v.1.15,2013-07-08 12:14:00,
2013-07-08 07:19:00,74.4,68.9,29.85,SSW,205,6.0,6.0,83,0.00,,,0.03,Wunderground v.1.15,2013-07-08 12:19:00,
2013-07-08 07:24:00,74.6,69.1,29.85,SSW,209,6.0,7.0,83,0.00,,,0.03,Wunderground v.1.15,2013-07-08 12:24:00,
2013-07-08 07:29:00,75.0,69.8,29.86,SSW,212,3.0,7.0,84,0.00,,,0.03,Wunderground v.1.15,2013-07-08 12:29:00,
2013-07-08 07:34:00,75.3,69.8,29.86,WSW,251,2.0,7.0,83,0.00,,,0.03,Wunderground v.1.15,2013-07-08 12:34:00,
2013-07-08 07:39:00,75.7,69.8,29.86,SW,230,7.0,7.0,82,0.00,,,0.03,Wunderground v.1.15,2013-07-08 12:39:00,
2013-07-08 07:44:00,76.0,69.7,29.86,West,269,3.0,6.0,81,0.00,,,0.03,Wunderground v.1.15,2013-07-08 12:44:00,
2013-07-08 07:49:00,76.3,70.0,29.87,SW,235,7.0,7.0,81,0.00,,,0.03,Wunderground v.1.15,2013-07-08 12:49:00,
2013-07-08 07:54:00,76.4,70.1,29.87,WSW,246,5.0,8.0,81,0.00,,,0.03,Wunderground v.1.15,2013-07-08 12:54:00,
2013-07-08 07:59:00,76.5,70.6,29.87,SW,229,7.0,8.0,82,0.00,,,0.03,Wunderground v.1.15,2013-07-08 12:59:00,
2013-07-08 08:04:00,76.8,70.5,29.87,SW,225,5.0,6.0,81,0.00,,,0.03,Wunderground v.1.15,2013-07-08 13:04:00,
2013-07-08 08:09:00,77.2,70.5,29.87,SW,224,4.0,6.0,80,0.00,,,0.03,Wunderground v.1.15,2013-07-08 13:09:00,
2013-07-08 08:14:00,77.4,70.7,29.87,SW,217,5.0,9.0,80,0.00,,,0.03,Wunderground v.1.15,2013-07-08 13:14:00,
2013-07-08 08:19:00,77.7,71.0,29.87,SW,229,6.0,9.0,80,0.00,,,0.03,Wunderground v.1.15,2013-07-08 13:19:00,
2013-07-08 08:24:00,78.0,71.0,29.87,WSW,238,5.0,9.0,79,0.00,,,0.03,Wunderground v.1.15,2013-07-08 13:24:00,
2013-07-08 08:29:00,78.3,71.6,29.87,SSW,210,5.0,9.0,80,0.00,,,0.03,Wunderground v.1.15,2013-07-08 13:29:00,
2013-07-08 08:34:00,78.6,71.2,29.87,WSW,237,8.0,10.0,78,0.00,,,0.03,Wunderground v.1.15,2013-07-08 13:34:00,
2013-07-08 08:39:00,78.8,71.4,29.87,WSW,241,6.0,10.0,78,0.00,,,0.03,Wunderground v.1.15,2013-07-08 13:39:00,
2013-07-08 08:44:00,79.2,71.7,29.87,SW,232,5.0,9.0,78,0.00,,,0.03,Wunderground v.1.15,2013-07-08 13:44:00,
2013-07-08 08:49:00,79.5,71.7,29.87,West,263,6.0,9.0,77,0.00,,,0.03,Wunderground v.1.15,2013-07-08 13:49:00,
2013-07-08 08:54:00,79.7,71.8,29.87,WSW,240,4.0,10.0,77,0.00,,,0.03,Wunderground v.1.15,2013-07-08 13:54:00,
2013-07-08 08:59:00,79.9,71.3,29.87,WSW,242,6.0,11.0,75,0.00,,,0.03,Wunderground v.1.15,2013-07-08 13:59:00,
2013-07-08 09:04:00,80.1,72.2,29.88,West,260,6.0,8.0,77,0.00,,,0.03,Wunderground v.1.15,2013-07-08 14:04:00,
2013-07-08 09:09:00,80.4,71.7,29.87,West,269,7.0,9.0,75,0.00,,,0.03,Wunderground v.1.15,2013-07-08 14:09:00,
2013-07-08 09:14:00,80.3,72.0,29.87,West,275,6.0,8.0,76,0.00,,,0.03,Wunderground v.1.15,2013-07-08 14:14:00,
2013-07-08 09:19:00,80.5,72.2,29.88,West,259,4.0,8.0,76,0.00,,,0.03,Wunderground v.1.15,2013-07-08 14:19:00,
2013-07-08 09:24:00,80.9,72.6,29.88,WSW,249,5.0,7.0,76,0.00,,,0.03,Wunderground v.1.15,2013-07-08 14:24:00,
2013-07-08 09:29:00,81.2,72.9,29.88,WSW,242,7.0,9.0,76,0.00,,,0.03,Wunderground v.1.15,2013-07-08 14:29:00,
2013-07-08 09:34:00,81.5,72.4,29.88,West,270,4.0,8.0,74,0.00,,,0.03,Wunderground v.1.15,2013-07-08 14:34:00,
2013-07-08 09:39:00,81.8,73.1,29.88,WSW,239,6.0,8.0,75,0.00,,,0.03,Wunderground v.1.15,2013-07-08 14:39:00,
2013-07-08 09:44:00,82.0,72.9,29.88,West,269,6.0,9.0,74,0.00,,,0.03,Wunderground v.1.15,2013-07-08 14:44:00,
2013-07-08 09:49:00,82.1,73.8,29.88,WNW,300,3.0,9.0,76,0.00,,,0.03,Wunderground v.1.15,2013-07-08 14:49:00,
2013-07-08 09:54:00,82.4,74.1,29.88,West,273,9.0,9.0,76,0.00,,,0.03,Wunderground v.1.15,2013-07-08 14:54:00,
2013-07-08 09:59:00,82.4,73.3,29.88,WNW,288,4.0,9.0,74,0.00,,,0.03,Wunderground v.1.15,2013-07-08 14:59:00,
2013-07-08 10:04:00,82.3,73.6,29.88,NW,321,4.0,7.0,75,0.00,,,0.03,Wunderground v.1.15,2013-07-08 15:04:00,
2013-07-08 10:09:00,82.1,73.4,29.89,WNW,287,5.0,7.0,75,0.00,,,0.03,Wunderground v.1.15,2013-07-08 15:09:00,
2013-07-08 10:14:00,82.2,73.5,29.89,NW,316,5.0,7.0,75,0.00,,,0.03,Wunderground v.1.15,2013-07-08 15:14:00,
2013-07-08 10:19:00,82.5,74.2,29.89,NW,309,4.0,7.0,76,0.00,,,0.03,Wunderground v.1.15,2013-07-08 15:19:00,
2013-07-08 10:25:00,82.6,74.3,29.89,WNW,295,7.0,7.0,76,0.00,,,0.03,Wunderground v.1.15,2013-07-08 15:25:00,
2013-07-08 10:30:00,82.5,73.4,29.89,WNW,294,3.0,7.0,74,0.00,,,0.03,Wunderground v.1.15,2013-07-08 15:30:00,
2013-07-08 10:35:00,82.6,73.9,29.89,WNW,285,3.0,5.0,75,0.00,,,0.03,Wunderground v.1.15,2013-07-08 15:35:00,
2013-07-08 10:40:00,82.8,73.7,29.89,West,267,4.0,6.0,74,0.00,,,0.03,Wunderground v.1.15,2013-07-08 15:40:00,
2013-07-08 10:45:00,82.9,73.8,29.89,NW,311,3.0,5.0,74,0.00,,,0.03,Wunderground v.1.15,2013-07-08 15:45:00,
2013-07-08 10:50:00,83.0,74.3,29.89,NW,321,4.0,6.0,75,0.00,,,0.03,Wunderground v.1.15,2013-07-08 15:50:00,
2013-07-08 10:55:00,82.9,73.8,29.89,NNW,331,3.0,3.0,74,0.00,,,0.03,Wunderground v.1.15,2013-07-08 15:55:00,
2013-07-08 11:00:00,82.9,74.2,29.89,WNW,284,0.0,3.0,75,0.00,,,0.03,Wunderground v.1.15,2013-07-08 16:00:00,
2013-07-08 11:05:00,83.0,74.3,29.89,WSW,254,4.0,6.0,75,0.00,,,0.03,Wunderground v.1.15,2013-07-08 16:05:00,
2013-07-08 11:10:00,83.1,74.4,29.89,WSW,256,2.0,3.0,75,0.00,,,0.03,Wunderground v.1.15,2013-07-08 16:10:00,
2013-07-08 11:15:00,83.4,73.8,29.89,WNW,286,0.0,3.0,73,0.00,,,0.03,Wunderground v.1.15,2013-07-08 16:15:00,
2013-07-08 11:20:00,84.0,75.2,29.89,SSW,207,2.0,3.0,75,0.00,,,0.03,Wunderground v.1.15,2013-07-08 16:20:00,
2013-07-08 11:25:00,84.3,73.9,29.89,SSW,193,2.0,6.0,71,0.00,,,0.03,Wunderground v.1.15,2013-07-08 16:25:00,
2013-07-08 11:30:00,84.3,74.7,29.89,WSW,238,3.0,6.0,73,0.00,,,0.03,Wunderground v.1.15,2013-07-08 16:30:00,
2013-07-08 11:35:00,84.1,74.9,29.89,South,191,4.0,7.0,74,0.00,,,0.03,Wunderground v.1.15,2013-07-08 16:35:00,
2013-07-08 11:40:00,84.3,74.7,29.89,SW,235,2.0,7.0,73,0.00,,,0.03,Wunderground v.1.15,2013-07-08 16:40:00,
2013-07-08 11:47:00,84.5,75.7,29.89,SSW,203,3.0,7.0,75,0.00,,,0.03,Wunderground v.1.15,2013-07-08 16:47:00,
2013-07-08 11:52:00,84.6,75.4,29.89,WSW,248,5.0,5.0,74,0.00,,,0.03,Wunderground v.1.15,2013-07-08 16:52:00,
2013-07-08 11:58:00,84.8,75.6,29.89,South,185,6.0,9.0,74,0.00,,,0.03,Wunderground v.1.15,2013-07-08 16:58:00,
2013-07-08 12:03:00,84.9,75.7,29.89,SW,234,5.0,6.0,74,0.00,,,0.03,Wunderground v.1.15,2013-07-08 17:03:00,
2013-07-08 12:08:00,84.8,75.6,29.89,SW,223,4.0,7.0,74,0.00,,,0.03,Wunderground v.1.15,2013-07-08 17:08:00,
2013-07-08 12:13:00,85.0,77.0,29.89,SSW,213,5.0,7.0,77,0.00,,,0.03,Wunderground v.1.15,2013-07-08 17:13:00,
2013-07-08 12:18:00,85.1,76.3,29.89,SSW,200,8.0,9.0,75,0.00,,,0.03,Wunderground v.1.15,2013-07-08 17:18:00,
2013-07-08 12:23:00,85.4,76.2,29.89,WSW,238,4.0,6.0,74,0.00,,,0.03,Wunderground v.1.15,2013-07-08 17:23:00,
2013-07-08 12:28:00,85.6,76.8,29.88,SSW,204,9.0,9.0,75,0.00,,,0.03,Wunderground v.1.15,2013-07-08 17:28:00,
2013-07-08 12:33:00,85.9,77.1,29.88,WSW,250,7.0,7.0,75,0.00,,,0.03,Wunderground v.1.15,2013-07-08 17:33:00,
2013-07-08 12:39:00,85.9,76.2,29.88,SW,231,7.0,9.0,73,0.00,,,0.03,Wunderground v.1.15,2013-07-08 17:39:00,
2013-07-08 12:44:00,86.0,76.3,29.88,SW,215,4.0,8.0,73,0.00,,,0.03,Wunderground v.1.15,2013-07-08 17:44:00,
2013-07-08 12:49:00,86.3,77.0,29.89,SW,214,6.0,10.0,74,0.00,,,0.03,Wunderground v.1.15,2013-07-08 17:49:00,
2013-07-08 12:54:00,86.0,76.3,29.88,SSW,210,6.0,8.0,73,0.00,,,0.03,Wunderground v.1.15,2013-07-08 17:54:00,
2013-07-08 12:59:00,85.9,76.2,29.88,SW,219,5.0,11.0,73,0.00,,,0.03,Wunderground v.1.15,2013-07-08 17:59:00,
2013-07-08 13:04:00,85.8,76.1,29.88,WSW,238,6.0,10.0,73,0.00,,,0.03,Wunderground v.1.15,2013-07-08 18:04:00,
2013-07-08 13:09:00,85.7,76.5,29.88,SSW,209,7.0,7.0,74,0.00,,,0.03,Wunderground v.1.15,2013-07-08 18:09:00,
2013-07-08 13:15:00,86.0,75.9,29.88,SW,226,6.0,10.0,72,0.00,,,0.03,Wunderground v.1.15,2013-07-08 18:15:00,
2013-07-08 13:20:00,86.1,75.2,29.88,SSW,209,9.0,10.0,70,0.00,,,0.03,Wunderground v.1.15,2013-07-08 18:20:00,
2013-07-08 13:25:00,86.3,75.8,29.88,SSW,199,9.0,10.0,71,0.00,,,0.03,Wunderground v.1.15,2013-07-08 18:25:00,
2013-07-08 13:30:00,86.4,76.7,29.88,SW,215,7.0,12.0,73,0.00,,,0.03,Wunderground v.1.15,2013-07-08 18:30:00,
2013-07-08 13:36:00,86.5,76.4,29.88,SSW,209,8.0,11.0,72,0.00,,,0.03,Wunderground v.1.15,2013-07-08 18:36:00,
2013-07-08 13:43:00,86.3,76.6,29.88,SW,227,6.0,9.0,73,0.00,,,0.03,Wunderground v.1.15,2013-07-08 18:43:00,
2013-07-08 13:48:00,86.2,76.1,29.88,SSW,208,7.0,13.0,72,0.00,,,0.03,Wunderground v.1.15,2013-07-08 18:48:00,
2013-07-08 13:53:00,86.3,76.2,29.88,SSW,205,10.0,10.0,72,0.00,,,0.03,Wunderground v.1.15,2013-07-08 18:53:00,
2013-07-08 13:58:00,86.4,76.7,29.88,SW,227,8.0,11.0,73,0.00,,,0.03,Wunderground v.1.15,2013-07-08 18:58:00,
2013-07-08 14:03:00,86.5,75.5,29.88,SW,221,7.0,9.0,70,0.00,,,0.03,Wunderground v.1.15,2013-07-08 19:03:00,
2013-07-08 14:10:00,86.5,76.0,29.88,WSW,238,9.0,10.0,71,0.00,,,0.03,Wunderground v.1.15,2013-07-08 19:10:00,
2013-07-08 14:15:00,86.5,76.4,29.88,SW,230,9.0,12.0,72,0.00,,,0.03,Wunderground v.1.15,2013-07-08 19:15:00,
2013-07-08 14:20:00,86.3,76.2,29.88,West,259,6.0,13.0,72,0.00,,,0.03,Wunderground v.1.15,2013-07-08 19:20:00,
2013-07-08 14:25:00,85.8,75.3,29.88,SSW,197,7.0,13.0,71,0.00,,,0.03,Wunderground v.1.15,2013-07-08 19:25:00,
2013-07-08 14:33:00,85.1,75.1,29.88,SSW,208,9.0,9.0,72,0.00,,,0.03,Wunderground v.1.15,2013-07-08 19:33:00,
2013-07-08 14:38:00,85.1,75.5,29.88,SW,215,9.0,11.0,73,0.00,,,0.03,Wunderground v.1.15,2013-07-08 19:38:00,
2013-07-08 14:44:00,85.4,75.8,29.88,SW,234,11.0,11.0,73,0.00,,,0.03,Wunderground v.1.15,2013-07-08 19:44:00,
2013-07-08 14:50:00,85.9,76.2,29.88,SW,217,7.0,12.0,73,0.00,,,0.03,Wunderground v.1.15,2013-07-08 19:50:00,
2013-07-08 14:55:00,86.3,76.6,29.88,SW,227,6.0,11.0,73,0.00,,,0.03,Wunderground v.1.15,2013-07-08 19:55:00,
2013-07-08 15:00:00,86.5,76.0,29.88,SSW,201,7.0,9.0,71,0.00,,,0.03,Wunderground v.1.15,2013-07-08 20:00:00,
2013-07-08 15:06:00,86.7,76.6,29.88,SW,220,8.0,12.0,72,0.00,,,0.03,Wunderground v.1.15,2013-07-08 20:06:00,
2013-07-08 15:12:00,86.8,76.3,29.88,SW,229,8.0,8.0,71,0.00,,,0.03,Wunderground v.1.15,2013-07-08 20:12:00,
2013-07-08 15:18:00,86.7,76.6,29.88,WSW,254,7.0,12.0,72,0.00,,,0.03,Wunderground v.1.15,2013-07-08 20:18:00,
2013-07-08 15:23:00,86.4,75.5,29.88,SW,215,10.0,10.0,70,0.00,,,0.03,Wunderground v.1.15,2013-07-08 20:23:00,
2013-07-08 15:29:00,85.8,75.3,29.88,SW,216,7.0,11.0,71,0.00,,,0.03,Wunderground v.1.15,2013-07-08 20:29:00,
2013-07-08 15:34:00,85.9,75.8,29.88,SW,226,10.0,11.0,72,0.00,,,0.03,Wunderground v.1.15,2013-07-08 20:34:00,
2013-07-08 15:39:00,86.2,76.1,29.88,SSW,196,7.0,12.0,72,0.00,,,0.03,Wunderground v.1.15,2013-07-08 20:39:00,
2013-07-08 15:44:00,86.5,76.0,29.88,WSW,238,11.0,12.0,71,0.00,,,0.03,Wunderground v.1.15,2013-07-08 20:44:00,
2013-07-08 15:49:00,86.5,76.0,29.88,SSW,207,8.0,12.0,71,0.00,,,0.03,Wunderground v.1.15,2013-07-08 20:49:00,
2013-07-08 15:55:00,86.7,76.6,29.88,WSW,238,8.0,10.0,72,0.00,,,0.03,Wunderground v.1.15,2013-07-08 20:55:00,
2013-07-08 16:03:00,86.9,75.5,29.88,SW,233,6.0,6.0,69,0.00,,,0.03,Wunderground v.1.15,2013-07-08 21:03:00,
2013-07-08 16:08:00,86.8,75.4,29.88,SW,234,9.0,10.0,69,0.00,,,0.03,Wunderground v.1.15,2013-07-08 21:08:00,
2013-07-08 16:13:00,86.8,76.3,29.88,SW,219,9.0,9.0,71,0.00,,,0.03,Wunderground v.1.15,2013-07-08 21:13:00,
2013-07-08 16:19:00,87.0,76.9,29.88,WSW,246,9.0,10.0,72,0.00,,,0.03,Wunderground v.1.15,2013-07-08 21:19:00,
2013-07-08 16:25:00,87.1,76.5,29.88,WSW,244,5.0,9.0,71,0.00,,,0.03,Wunderground v.1.15,2013-07-08 21:25:00,
2013-07-08 16:30:00,87.1,76.1,29.88,SW,222,8.0,10.0,70,0.00,,,0.03,Wunderground v.1.15,2013-07-08 21:30:00,
2013-07-08 16:35:00,87.1,76.5,29.88,SSW,213,8.0,9.0,71,0.00,,,0.03,Wunderground v.1.15,2013-07-08 21:35:00,
2013-07-08 16:42:00,87.2,76.2,29.88,SW,226,7.0,7.0,70,0.00,,,0.03,Wunderground v.1.15,2013-07-08 21:42:00,
2013-07-08 16:47:00,87.4,77.3,29.87,South,183,7.0,11.0,72,0.00,,,0.03,Wunderground v.1.15,2013-07-08 21:47:00,
2013-07-08 16:53:00,87.5,76.9,29.87,WSW,243,6.0,7.0,71,0.00,,,0.03,Wunderground v.1.15,2013-07-08 21:53:00,
2013-07-08 16:58:00,87.5,76.9,29.87,SW,225,6.0,8.0,71,0.00,,,0.03,Wunderground v.1.15,2013-07-08 21:58:00,
2013-07-08 17:04:00,87.4,76.8,29.87,SW,215,8.0,9.0,71,0.00,,,0.03,Wunderground v.1.15,2013-07-08 22:04:00,
2013-07-08 17:10:00,87.3,76.7,29.87,SW,215,7.0,7.0,71,0.00,,,0.03,Wunderground v.1.15,2013-07-08 22:10:00,
2013-07-08 17:15:00,87.3,76.3,29.87,SSW,213,8.0,10.0,70,0.00,,,0.03,Wunderground v.1.15,2013-07-08 22:15:00,
2013-07-08 17:20:00,87.4,76.8,29.87,SSW,208,7.0,10.0,71,0.00,,,0.03,Wunderground v.1.15,2013-07-08 22:20:00,
2013-07-08 17:25:00,87.5,76.9,29.87,SW,219,5.0,8.0,71,0.00,,,0.03,Wunderground v.1.15,2013-07-08 22:25:00,
2013-07-08 17:33:00,87.6,77.0,29.87,SSW,211,7.0,7.0,71,0.00,,,0.03,Wunderground v.1.15,2013-07-08 22:33:00,
2013-07-08 17:39:00,87.5,77.4,29.88,SSW,203,6.0,9.0,72,0.00,,,0.03,Wunderground v.1.15,2013-07-08 22:39:00,
2013-07-08 17:44:00,87.4,76.8,29.87,SW,216,4.0,9.0,71,0.00,,,0.03,Wunderground v.1.15,2013-07-08 22:44:00,
2013-07-08 17:49:00,87.4,77.3,29.87,SSW,212,8.0,9.0,72,0.00,,,0.03,Wunderground v.1.15,2013-07-08 22:49:00,
2013-07-08 17:55:00,87.4,77.3,29.87,SSW,202,5.0,10.0,72,0.00,,,0.03,Wunderground v.1.15,2013-07-08 22:55:00,
2013-07-08 18:00:00,87.4,77.3,29.87,SW,214,6.0,7.0,72,0.00,,,0.03,Wunderground v.1.15,2013-07-08 23:00:00,
2013-07-08 18:05:00,87.3,77.2,29.87,SW,226,8.0,11.0,72,0.00,,,0.03,Wunderground v.1.15,2013-07-08 23:05:00,
2013-07-08 18:12:00,87.0,76.0,29.88,WSW,243,8.0,8.0,70,0.00,,,0.03,Wunderground v.1.15,2013-07-08 23:12:00,
2013-07-08 18:18:00,87.0,75.6,29.88,WSW,242,7.0,12.0,69,0.00,,,0.03,Wunderground v.1.15,2013-07-08 23:18:00,
2013-07-08 18:23:00,86.7,74.9,29.88,SW,218,8.0,10.0,68,0.00,,,0.03,Wunderground v.1.15,2013-07-08 23:23:00,
2013-07-08 18:28:00,86.3,75.4,29.88,SW,221,7.0,11.0,70,0.00,,,0.03,Wunderground v.1.15,2013-07-08 23:28:00,
2013-07-08 18:33:00,86.3,75.4,29.88,SW,214,10.0,10.0,70,0.00,,,0.03,Wunderground v.1.15,2013-07-08 23:33:00,
2013-07-08 18:39:00,86.2,75.7,29.88,SW,236,5.0,14.0,71,0.00,,,0.03,Wunderground v.1.15,2013-07-08 23:39:00,
2013-07-08 18:44:00,85.7,75.6,29.88,SSW,213,6.0,10.0,72,0.00,,,0.03,Wunderground v.1.15,2013-07-08 23:44:00,
2013-07-08 18:50:00,85.0,75.8,29.88,SW,228,9.0,13.0,74,0.00,,,0.03,Wunderground v.1.15,2013-07-08 23:50:00,
2013-07-08 18:56:00,83.9,75.5,29.88,SW,234,9.0,9.0,76,0.00,,,0.03,Wunderground v.1.15,2013-07-08 23:56:00,
2013-07-08 19:03:00,83.1,75.5,29.89,SW,217,8.0,8.0,78,0.00,,,0.03,Wunderground v.1.15,2013-07-09 00:03:00,
2013-07-08 19:09:00,82.6,75.0,29.89,SSW,211,8.0,8.0,78,0.00,,,0.03,Wunderground v.1.15,2013-07-09 00:09:00,
2013-07-08 19:14:00,82.2,74.7,29.89,SW,231,7.0,7.0,78,0.00,,,0.03,Wunderground v.1.15,2013-07-09 00:14:00,
2013-07-08 19:20:00,81.7,74.2,29.89,SW,227,7.0,10.0,78,0.00,,,0.03,Wunderground v.1.15,2013-07-09 00:20:00,
2013-07-08 19:25:00,81.4,74.3,29.89,SW,232,6.0,9.0,79,0.00,,,0.03,Wunderground v.1.15,2013-07-09 00:25:00,
2013-07-08 19:33:00,81.3,74.5,29.88,SW,219,3.0,6.0,80,0.00,,,0.03,Wunderground v.1.15,2013-07-09 00:33:00,
2013-07-08 19:38:00,81.3,74.5,29.88,SW,221,4.0,8.0,80,0.00,,,0.03,Wunderground v.1.15,2013-07-09 00:38:00,
2013-07-08 19:43:00,81.4,74.6,29.87,SSW,213,5.0,6.0,80,0.00,,,0.03,Wunderground v.1.15,2013-07-09 00:43:00,
2013-07-08 19:49:00,81.2,74.4,29.87,SW,223,6.0,7.0,80,0.00,,,0.03,Wunderground v.1.15,2013-07-09 00:49:00,
2013-07-08 19:57:00,81.0,74.6,29.87,SW,215,5.0,6.0,81,0.00,,,0.03,Wunderground v.1.15,2013-07-09 00:57:00,
2013-07-08 20:12:00,80.7,74.7,29.87,SSW,198,7.0,7.0,82,0.00,,,0.03,Wunderground v.1.15,2013-07-09 01:12:00,
2013-07-08 20:18:00,80.5,74.5,29.88,SSW,209,5.0,7.0,82,0.00,,,0.03,Wunderground v.1.15,2013-07-09 01:18:00,
2013-07-08 20:23:00,80.3,74.3,29.88,SSW,211,5.0,5.0,82,0.00,,,0.03,Wunderground v.1.15,2013-07-09 01:23:00,
2013-07-08 20:28:00,80.1,74.5,29.88,SSW,207,3.0,5.0,83,0.00,,,0.03,Wunderground v.1.15,2013-07-09 01:28:00,
2013-07-08 20:33:00,79.9,74.6,29.88,SSW,192,2.0,3.0,84,0.00,,,0.03,Wunderground v.1.15,2013-07-09 01:33:00,
2013-07-08 20:38:00,79.6,74.7,29.88,South,189,3.0,4.0,85,0.00,,,0.03,Wunderground v.1.15,2013-07-09 01:38:00,
2013-07-08 20:44:00,79.2,74.3,29.88,South,188,3.0,4.0,85,0.00,,,0.03,Wunderground v.1.15,2013-07-09 01:44:00,
2013-07-08 20:49:00,78.9,74.4,29.88,South,185,3.0,4.0,86,0.00,,,0.03,Wunderground v.1.15,2013-07-09 01:49:00,
2013-07-08 20:54:00,78.5,74.3,29.88,South,184,3.0,5.0,87,0.00,,,0.03,Wunderground v.1.15,2013-07-09 01:54:00,
2013-07-08 21:00:00,78.3,74.1,29.88,South,181,4.0,4.0,87,0.00,,,0.03,Wunderground v.1.15,2013-07-09 02:00:00,
2013-07-08 21:12:00,77.9,73.7,29.89,South,169,4.0,4.0,87,0.00,,,0.03,Wunderground v.1.15,2013-07-09 02:12:00,
2013-07-08 21:18:00,77.9,74.1,29.90,SSE,166,2.0,4.0,88,0.00,,,0.03,Wunderground v.1.15,2013-07-09 02:18:00,
2013-07-08 21:24:00,77.9,73.7,29.90,SSE,164,4.0,4.0,87,0.00,,,0.03,Wunderground v.1.15,2013-07-09 02:24:00,
2013-07-08 21:29:00,78.0,73.8,29.90,SSE,158,2.0,4.0,87,0.00,,,0.03,Wunderground v.1.15,2013-07-09 02:29:00,
2013-07-08 21:34:00,77.9,73.7,29.90,SSE,161,2.0,4.0,87,0.00,,,0.03,Wunderground v.1.15,2013-07-09 02:34:00,
2013-07-08 21:40:00,77.6,73.4,29.90,SSE,153,4.0,4.0,87,0.00,,,0.03,Wunderground v.1.15,2013-07-09 02:40:00,
2013-07-08 21:45:00,77.3,73.5,29.90,SSE,154,4.0,4.0,88,0.00,,,0.03,Wunderground v.1.15,2013-07-09 02:45:00,
2013-07-08 21:50:00,77.0,73.5,29.90,SSE,167,4.0,4.0,89,0.00,,,0.03,Wunderground v.1.15,2013-07-09 02:50:00,
2013-07-08 21:56:00,76.8,73.3,29.90,South,169,2.0,4.0,89,0.00,,,0.03,Wunderground v.1.15,2013-07-09 02:56:00,
2013-07-08 22:11:00,76.6,73.4,29.90,SSE,150,4.0,4.0,90,0.00,,,0.03,Wunderground v.1.15,2013-07-09 03:11:00,
2013-07-08 22:16:00,76.5,73.3,29.90,SSE,162,2.0,4.0,90,0.00,,,0.03,Wunderground v.1.15,2013-07-09 03:16:00,
2013-07-08 22:32:00,76.1,73.0,29.90,South,169,4.0,4.0,90,0.00,,,0.03,Wunderground v.1.15,2013-07-09 03:32:00,
2013-07-08 22:38:00,76.0,73.2,29.90,SSE,157,2.0,4.0,91,0.00,,,0.03,Wunderground v.1.15,2013-07-09 03:38:00,
2013-07-08 22:51:00,75.9,73.1,29.90,South,173,2.0,5.0,91,0.00,,,0.03,Wunderground v.1.15,2013-07-09 03:51:00,
2013-07-08 22:56:00,75.8,73.0,29.90,South,173,2.0,4.0,91,0.00,,,0.03,Wunderground v.1.15,2013-07-09 03:56:00,
2013-07-08 23:01:00,75.6,72.8,29.90,South,173,2.0,5.0,91,0.00,,,0.03,Wunderground v.1.15,2013-07-09 04:01:00,
2013-07-08 23:12:00,75.4,72.6,29.90,South,174,2.0,3.0,91,0.00,,,0.03,Wunderground v.1.15,2013-07-09 04:12:00,
2013-07-08 23:13:00,75.3,72.5,29.90,South,174,2.0,3.0,91,0.00,,,0.03,Wunderground v.1.15,2013-07-09 04:13:00,
2013-07-08 23:18:00,75.3,72.5,29.90,South,183,2.0,4.0,91,0.00,,,0.03,Wunderground v.1.15,2013-07-09 04:18:00,
2013-07-08 23:23:00,75.2,72.7,29.90,South,180,3.0,3.0,92,0.00,,,0.03,Wunderground v.1.15,2013-07-09 04:23:00,
2013-07-08 23:28:00,75.1,72.6,29.90,South,175,4.0,5.0,92,0.00,,,0.03,Wunderground v.1.15,2013-07-09 04:28:00,
2013-07-08 23:42:00,75.1,72.6,29.89,South,184,2.0,3.0,92,0.00,,,0.03,Wunderground v.1.15,2013-07-09 04:42:00,
2013-07-08 23:47:00,75.1,72.6,29.89,South,170,2.0,5.0,92,0.00,,,0.03,Wunderground v.1.15,2013-07-09 04:47:00,
2013-07-08 23:52:00,75.1,72.6,29.89,SSE,165,4.0,4.0,92,0.00,,,0.03,Wunderground v.1.15,2013-07-09 04:52:00,